Presure
134 146 135 131 131 139 147 130 133 130 149 141 139 151 146 165 162 144 163 148 156 172 158 153 163 152 157 166 133 135 144 148 202 185 388 388 217 196 172 374 250 132 381 81 88
140 143 141 136 130 141 135 134 133 137 141 135 144 151 126 145 161 139 153 172 160 151 166 136 173 141 177 185 184 203 207 144 206 183 164 343 394 409 170 328 363 244 166 189 160
144 146 142 129 133 139 146 124 150 127 136 132 147 141 150 130 152 155 158 173 167 160 177 162 159 176 188 182 169 178 218 173 223 223 248 407 356 168 248 98 182 343 182 175 210
136 145 134 125 145 137 143 132 146 134 146 146 143 137 155 139 148 153 160 173 160 177 154 151 184 167 129 141 142 169 163 197 346 154 261 429 380 378 369 345 330 373 180 430 419
142 126 140 127 138 138 135 134 146 142 142 148 135 151 156 150 155 152 167 170 153 179 151 162 151 192 200 193 201 211 193 168 143 349 444 302 369 365 262 149 378 266 110 359 416
142 130 146 134 129 140 129 145 140 137 140 142 139 151 144 144 143 156 154 167 164 170 154 160 183 195 157 173 193 205 131 265 234 215 408 427 414 282 363 218 132 372 151 380 444
139 139 138 135 145 136 136 143 140 142 136 155 150 148 142 151 143 170 165 166 167 158 148 189 195 134 115 164 186 147 191 306 467 165 424 251 310 408 355 132 367 209 200 341 417
131 137 143 143 140 140 135 145 144 145 145 140 146 158 133 149 159 153 164 158 159 160 170 187 181 186 172 218 231 147 194 149 462 455 443 410 351 158 358 161 369 96 344 379 225
133 136 127 136 138 147 156 139 149 128 137 146 147 145 155 155 153 163 146 142 165 168 191 190 202 186 152 186 170 227 145 150 465 449 449 427 375 135 217 353 370 269 418 409 388
142 144 148 129 126 138 136 139 146 147 146 149 148 144 136 146 156 162 140 157 182 168 162 168 205 174 179 178 247 141 176 458 464 388 424 287 344 142 183 270 374 405 415 388 154
153 153 152 152 117 140 127 135 141 133 156 133 141 132 143 154 154 159 133 179 183 181 182 211 181 158 235 212 233 156 268 263 408 409 405 128 389 190 215 124 147 418 382 410 381
147 152 151 125 134 129 152 131 137 150 144 147 141 149 146 150 161 163 167 164 166 174 174 169 201 191 208 167 173 174 146 422 407 403 382 400 116 156 413 382 228 334 250 366 331
159 150 141 143 144 152 147 145 143 124 161 141 147 161 164 167 168 165 171 178 179 176 178 176 165 150 169 205 227 190 156 425 415 400 368 321 232 124 396 433 130 239 343 362 318
153 153 151 156 158 158 156 122 156 148 146 160 164 146 151 175 165 175 168 179 140 178 213 197 185 198 213 170 242 184 188 248 153 375 382 376 368 381 384 407 410 355 349 347 155
161 145 146 142 147 157 161 162 159 154 165 163 163 163 162 162 153 169 179 146 191 176 178 213 178 221 201 213 126 271 258 386 295 374 367 379 376 377 382 174 162 329 328 335 332
163 150 156 158 158 149 157 147 160 165 162 159 166 160 162 170 165 176 170 152 204 166 167 213 214 202 210 238 205 205 180 432 282 383 342 364 308 378 373 250 164 159 148 328 228
146 161 160 155 152 155 156 149 160 158 159 164 165 164 168 142 177 185 168 104 178 186 201 193 189 188 233 206 173 134 252 340 369 407 377 356 368 174 273 131 142 160 161 167 230
163 151 136 143 158 157 160 165 161 162 161 155 161 176 160 169 202 177 189 177 195 191 194 197 208 211 223 235 258 234 247 308 298 406 392 364 359 372 289 386 337 148 121 183 112
169 159 140 146 171 169 143 149 161 171 163 170 160 145 184 203 183 184 178 197 211 184 188 205 209 200 242 204 226 257 206 334 324 410 402 376 214 168 339 270 317 166 107 136 149
187 166 178 173 161 168 169 171 164 164 158 156 178 184 171 192 168 196 197 188 195 186 202 193 182 222 188 226 246 220 248 403 349 419 381 381 356 365 226 369 315 127 219 145 154
190 198 192 159 189 187 164 155 152 182 198 181 177 182 187 183 198 196 196 191 202 206 188 174 150 214 146 237 219 244 220 351 293 427 407 373 355 360 342 285 319 323 128 194 332
200 203 192 204 154 192 185 185 190 186 184 189 191 187 187 189 184 188 197 189 173 190 178 162 168 211 232 245 221 262 254 308 344 426 406 256 359 362 131 152 352 319 330 144 337
178 162 212 203 198 190 194 194 188 182 192 148 192 202 164 194 188 184 185 186 190 180 212 149 153 228 231 238 238 260 257 312 379 445 421 360 364 131 136 130 347 356 315 316 324
168 192 173 198 187 185 150 169 195 199 181 207 198 160 163 189 184 186 191 186 191 197 208 208 191 230 221 237 232 244 254 308 421 425 461 362 359 230 218 245 346 356 339 309 313
164 159 146 151 161 187 184 200 205 154 207 189 174 199 198 190 183 196 181 180 186 203 209 213 223 211 218 213 247 255 286 305 391 429 424 375 236 337 126 244 340 357 358 311 303
175 190 194 196 189 181 169 183 184 183 192 181 175 189 196 186 175 183 182 176 205 206 203 224 221 217 238 160 232 246 283 296 299 293 411 465 357 314 336 333 339 352 347 326 318
235 145 204 209 182 187 178 192 204 187 190 160 196 191 197 187 191 173 188 188 208 199 211 226 231 216 230 230 241 236 279 293 286 432 407 477 307 195 329 324 329 331 357 321 316
Wind_Speed
22 26 26 27 29 29 31 33 35 34 36 37 40 47 45 55 58 47 59 46 52 61 38 34 47 43 55 66 64 52 62 38 91 90 93 34 70 28 45 24 42 54 37 17 26
28 29 29 30 31 35 31 35 37 38 41 40 45 51 34 48 60 44 56 73 55 38 51 36 52 47 65 83 81 98 97 38 99 98 26 32 35 30 34 27 24 22 49 61 55
33 35 33 33 36 37 39 35 47 38 42 43 51 48 55 36 57 60 63 77 67 48 65 45 65 68 78 86 66 72 115 71 114 23 71 38 33 15 41 48 12 20 32 46 59
35 39 36 35 44 40 40 41 45 44 50 52 50 49 65 49 55 64 69 76 58 73 33 37 76 58 65 68 64 77 68 91 31 21 43 26 27 18 18 14 18 13 53 27 42
42 37 43 39 43 44 42 44 46 50 52 57 50 62 66 63 66 60 77 75 42 77 25 54 65 89 85 79 93 116 102 67 17 49 28 24 24 17 15 30 9 27 27 26 44
47 43 49 48 43 49 44 51 45 48 54 58 55 64 57 57 55 66 60 70 63 64 34 48 78 81 55 64 84 106 24 110 60 57 32 20 17 11 13 24 44 14 30 36 47
48 49 52 52 59 51 51 54 47 51 54 70 67 67 53 64 52 85 77 76 72 43 30 93 96 62 19 73 94 50 82 130 37 24 27 14 11 13 11 37 10 22 19 46 52
54 55 58 59 61 61 53 58 55 55 62 62 66 80 40 63 74 63 76 68 62 60 71 85 77 67 67 119 138 52 89 37 32 25 24 21 18 14 8 15 11 26 33 56 63
56 58 48 58 63 71 76 59 68 48 58 70 70 61 75 74 69 81 55 41 76 77 107 89 102 76 51 88 77 124 33 45 30 22 16 13 2 27 9 11 14 34 31 57 65
62 66 69 54 47 66 62 59 69 68 70 76 73 64 49 65 75 82 43 74 105 82 49 74 117 41 74 69 135 28 64 27 25 41 19 4 17 13 17 20 17 22 34 58 69
76 74 73 72 35 73 40 59 67 55 80 54 62 46 65 78 77 82 37 104 108 101 96 124 74 42 130 103 125 48 143 37 36 25 17 34 8 10 13 36 21 23 62 69 76
71 74 75 50 65 45 85 48 56 75 74 76 64 80 69 74 87 88 92 85 82 96 77 84 120 97 112 60 67 59 32 36 39 20 14 15 32 17 16 7 36 59 55 68 96
83 72 68 73 78 85 80 77 71 45 85 74 81 92 96 94 96 94 104 111 111 102 97 71 69 52 55 100 123 81 29 33 33 22 30 8 8 26 14 11 45 59 73 73 93
81 74 78 84 91 86 87 41 89 73 80 89 92 71 80 105 94 107 102 115 62 108 118 107 96 105 124 65 134 52 39 26 13 21 19 14 9 12 9 13 13 73 75 80 28
85 69 74 73 85 89 89 93 88 86 91 90 93 93 96 91 80 101 111 57 118 106 97 124 80 132 88 111 29 126 120 64 83 28 12 11 8 5 4 31 32 74 84 87 95
87 77 82 85 88 83 88 81 90 93 91 91 96 92 98 107 96 109 104 69 113 72 61 123 125 111 120 132 85 56 27 25 77 17 16 19 5 7 7 18 33 34 38 87 110
65 84 87 85 86 90 88 77 91 83 88 93 98 97 103 54 110 114 100 29 90 104 116 108 95 91 127 104 52 29 106 94 46 12 11 16 11 22 13 33 33 35 36 41 110
87 71 62 71 90 90 93 97 93 92 91 83 94 105 91 105 101 101 110 109 112 111 113 112 118 118 124 127 126 116 101 108 82 13 8 12 9 4 11 4 71 37 42 45 24
94 82 67 75 98 96 64 71 85 97 94 101 88 68 106 95 102 105 107 108 107 102 111 117 114 103 128 95 101 122 53 97 83 14 9 11 17 25 7 18 62 44 46 40 42
94 91 96 98 89 95 97 96 94 96 86 81 105 97 100 98 81 104 105 103 109 98 116 106 77 127 79 122 130 86 104 62 67 16 12 13 11 12 22 9 65 35 56 43 46
89 96 93 80 98 97 77 73 63 97 89 100 96 95 99 97 102 102 105 103 109 111 100 82 49 121 54 124 76 114 72 85 77 12 14 14 14 16 19 20 57 72 40 50 83
95 94 89 93 70 95 96 96 97 92 93 97 97 97 96 98 97 99 104 102 77 106 79 64 65 118 124 113 98 115 115 98 67 16 12 17 15 20 27 29 23 74 79 45 81
75 74 95 94 94 90 93 98 91 86 92 68 98 95 80 98 98 96 100 102 93 89 116 50 47 123 115 112 113 111 115 104 61 16 14 17 16 27 26 25 24 36 74 79 80
69 87 77 93 85 84 70 81 95 94 84 92 90 77 72 94 96 102 105 101 106 111 114 113 80 110 107 103 108 107 117 101 46 17 16 19 20 21 24 22 25 27 58 77 78
67 73 63 70 77 87 88 95 89 62 87 88 84 95 103 97 96 110 93 77 90 109 110 112 100 95 98 81 111 114 105 103 45 20 14 24 27 19 29 23 25 26 47 88 86
75 84 87 93 90 81 78 84 88 88 93 82 81 92 105 95 85 97 96 73 106 107 105 114 103 99 102 45 95 112 99 97 102 90 15 20 33 14 26 26 20 23 45 74 95
87 64 88 109 84 90 85 99 99 90 94 64 105 102 100 96 99 76 100 98 108 100 109 97 97 97 98 102 109 96 95 100 86 23 15 15 32 22 28 27 24 27 23 77 86
Wind_Direction
288 293 284 282 288 301 312 294 298 297 315 304 306 312 306 320 314 308 317 308 313 318 307 294 313 296 309 319 293 306 292 311 327 296 329 297 305 246 265 266 248 216 233 212 206
290 295 292 295 286 298 291 293 293 301 307 301 308 312 304 309 318 308 312 320 316 316 320 272 322 276 321 327 315 328 335 321 318 290 313 311 299 307 247 254 262 205 232 225 218
293 292 293 283 289 293 305 293 307 298 301 302 312 307 310 306 313 314 316 319 318 320 319 324 307 330 333 319 325 323 332 327 320 317 312 321 303 207 247 226 265 250 224 234 227
287 291 284 287 296 290 303 293 303 297 308 307 310 306 312 313 314 316 317 319 321 320 328 310 332 326 286 302 305 305 327 324 321 284 318 325 315 311 290 266 244 237 240 204 200
283 288 288 290 291 296 293 297 301 303 304 309 306 309 310 311 313 317 317 319 328 322 309 321 303 332 334 338 337 336 320 305 294 328 334 281 322 308 202 243 247 250 188 201 192
284 289 289 287 292 296 295 294 296 301 304 305 307 308 311 316 320 318 321 319 322 323 320 328 332 335 304 318 336 332 313 340 320 312 334 341 327 257 287 174 185 195 239 179 176
283 286 289 289 291 292 293 295 299 302 303 307 307 308 316 314 320 317 319 321 322 330 304 329 332 287 330 326 331 330 316 345 350 303 336 287 298 316 281 181 209 223 207 185 165
291 287 288 289 291 294 297 300 304 305 304 305 305 308 323 316 316 321 318 322 323 328 330 331 320 341 309 337 338 316 338 313 350 349 347 350 326 213 264 228 201 228 175 166 186
287 286 296 291 293 292 294 302 303 302 304 305 306 308 310 314 319 318 323 319 325 324 324 331 333 327 337 334 317 337 300 306 356 7 35 20 18 198 210 218 193 179 176 171 168
280 283 284 295 297 296 298 302 300 301 304 304 306 310 316 317 317 316 319 320 320 323 329 328 329 336 317 334 335 311 319 2 13 354 46 55 50 191 219 187 190 185 171 167 202
276 280 283 287 286 289 306 303 301 307 302 307 309 313 314 315 316 316 305 319 319 324 328 324 325 302 331 329 340 323 346 313 359 13 39 166 43 195 169 210 190 184 157 164 167
280 283 283 290 289 289 290 303 299 298 303 303 306 307 311 312 313 316 317 319 322 325 330 329 327 337 336 314 318 318 298 354 352 2 8 34 209 201 47 8 189 172 179 164 173
275 279 282 283 284 285 290 293 297 296 297 304 304 304 308 311 313 317 318 319 321 323 329 334 324 302 312 335 344 334 311 340 353 357 354 353 189 215 49 45 198 183 174 168 177
274 278 278 279 281 284 286 288 293 296 298 299 301 306 307 309 314 314 317 317 318 322 321 321 323 335 332 314 340 328 335 325 314 348 1 1 2 44 65 32 175 173 171 174 204
271 277 276 280 282 284 286 288 291 298 298 301 304 306 308 312 310 314 314 308 316 321 328 324 327 327 340 342 305 344 347 351 354 345 340 356 351 343 74 189 184 180 179 177 177
272 275 276 279 280 285 286 291 294 294 298 301 302 306 307 307 311 311 315 320 319 328 333 324 325 327 336 334 338 343 349 344 351 343 321 341 264 352 179 190 189 186 191 180 176
275 273 274 278 282 284 287 294 292 297 298 300 301 304 304 307 308 310 316 308 319 323 323 323 324 328 331 337 333 283 352 354 347 335 298 325 318 196 240 198 195 196 193 197 181
269 274 283 282 278 282 284 286 291 294 298 303 302 300 308 305 309 312 312 313 317 320 322 321 325 330 332 335 336 342 351 350 351 324 271 297 312 290 227 203 182 200 220 197 241
266 272 281 282 274 277 297 296 290 289 295 294 302 302 302 306 307 309 310 315 319 321 323 322 325 328 331 333 339 338 341 352 349 316 289 251 224 201 221 219 187 207 241 209 201
261 267 267 269 277 276 279 279 287 290 297 303 294 300 303 307 307 310 313 314 317 320 319 328 323 326 328 335 334 349 349 353 349 281 279 239 252 229 214 204 191 210 203 224 207
262 264 267 275 272 274 283 289 291 284 289 289 296 300 303 306 307 311 313 315 316 318 327 320 314 328 321 332 338 337 343 352 349 290 255 258 244 224 194 212 196 197 229 216 191
264 265 266 269 282 274 277 279 282 283 286 290 294 299 302 305 306 310 312 315 327 319 337 317 320 329 330 333 341 339 346 351 349 311 245 249 249 224 219 222 197 198 198 233 195
264 266 268 268 270 275 277 279 282 286 287 304 294 298 303 305 306 308 312 315 319 325 317 315 316 327 330 331 336 338 347 354 351 314 239 259 228 229 227 232 195 199 195 195 196
264 262 271 268 271 276 289 285 282 284 289 288 292 303 299 303 305 307 309 314 314 316 316 322 325 327 330 332 336 340 344 354 348 321 258 242 215 228 220 214 196 200 199 197 198
268 269 281 281 277 273 276 276 277 294 284 291 296 295 298 300 304 303 313 316 317 314 317 321 323 327 328 338 333 336 346 354 349 324 279 222 218 229 249 222 195 196 200 200 201
259 257 261 264 269 274 279 280 281 285 288 291 295 295 295 299 308 306 310 320 310 314 320 320 322 326 330 320 337 338 344 350 354 353 285 247 215 236 203 191 193 203 196 198 199
250 280 257 255 267 268 275 273 273 280 283 302 290 289 291 297 297 314 306 311 309 316 318 321 324 325 327 329 332 343 340 349 351 330 289 261 223 225 202 196 192 204 207 200 198